User: anonymous   Login
Location: Bun Machan
(52.1403°N, 7.3744°W)
Time: 22:59:36
(UTC+00:00)
Language:

Gbstr 26 Del rocket - Orbit

View from above orbital plane
View from above orbital plane
View from above satellite
View from above satellite

Ground track
Ground track

The orbit data is extracted from the following two-line orbital elements,

1 25876U 99041E   20263.51136789 -.00000062 +00000-0 +28612-4 0  9996
2 25876 051.7678 299.0264 0530771 258.3929 095.6985 14.04457454081848
Epoch (UTC): 19 September 2020 12:16:22
Eccentricity: 0.0530771
inclination: 51.7678°
perigee height: 493 km
apogee height: 1263 km
right ascension of ascending node: 299.0264°
argument of perigee: 258.3929°
revolutions per day: 14.04457454
mean anomaly at epoch: 95.6985°
orbit number at epoch: 8184

The dashed part of the orbit path shows where the satellite is in the earth's shadow,  

DLR